When you browse on this site, cookies collect data to enhance your experience and personalize the content and advertising you see.
Visit our Privacy Policy to learn more. By continuing to use the site, you agree to this use of cookies and data.
  • în România
  • Lista ţărilor
  • Pe 7 zile
  • Temperatura apei
  • Hartă satelitară
  • Meteo pe hartă
  • Widget-uri
  • user-avatar
    Intrare

    Meteo pe oră la Bekescsaba

    Astăzi, 18 Ianuarie, Vineri

    Timp Temperatura Precipitaţii Vânt Presiune Umiditate
    00:00 +1°C° 0 mm 5 m/s 751 mmHg 83%
    01:00 +1°C° 0 mm 4 m/s 751 mmHg 86%
    02:00 +1°C° 0.4 mm 5 m/s 751 mmHg 87%
    03:00 +1°C° 0.4 mm 5 m/s 751 mmHg 89%
    04:00 +1°C° 0.4 mm 5 m/s 751 mmHg 90%
    05:00 +1°C° 0.7 mm 5 m/s 751 mmHg 91%
    06:00 +1°C° 0.7 mm 4 m/s 751 mmHg 92%
    07:00 +1°C° 0 mm 4 m/s 751 mmHg 91%
    08:00 +1°C° 0.3 mm 4 m/s 751 mmHg 91%
    09:00 +2°C° 0.3 mm 3 m/s 751 mmHg 91%
    10:00 +3°C° 0.3 mm 2 m/s 751 mmHg 91%
    11:00 +3°C° 0.2 mm 2 m/s 752 mmHg 91%
    12:00 +4°C° 0.2 mm 2 m/s 752 mmHg 91%
    13:00 +4°C° 0.2 mm 2 m/s 752 mmHg 91%
    14:00 +4°C° 0 mm 2 m/s 752 mmHg 87%
    15:00 +4°C° 0 mm 2 m/s 753 mmHg 84%
    16:00 +3°C° 0 mm 3 m/s 753 mmHg 80%
    17:00 +2°C° 0 mm 3 m/s 754 mmHg 79%
    18:00 +2°C° 0 mm 3 m/s 754 mmHg 79%
    19:00 +1°C° 0 mm 3 m/s 755 mmHg 78%
    20:00 +1°C° 0 mm 3 m/s 755 mmHg 80%
    21:00 0°C° 0 mm 3 m/s 756 mmHg 82%
    22:00 0°C° 0 mm 3 m/s 756 mmHg 83%
    23:00 -1°C° 0 mm 2 m/s 757 mmHg 83%

    Mâine, 19 Ianuarie, Sâmbătă

    Timp Temperatura Precipitaţii Vânt Presiune Umiditate
    00:00 -1°C° 0 mm 2 m/s 757 mmHg 83%
    01:00 -1°C° 0 mm 2 m/s 757 mmHg 82%
    02:00 -2°C° 0 mm 2 m/s 757 mmHg 82%
    03:00 -2°C° 0 mm 2 m/s 757 mmHg 81%
    04:00 -2°C° 0 mm 3 m/s 758 mmHg 80%
    05:00 -2°C° 0 mm 3 m/s 758 mmHg 81%
    06:00 -2°C° 0 mm 3 m/s 758 mmHg 82%
    07:00 -2°C° 0 mm 3 m/s 758 mmHg 82%
    08:00 -2°C° 0 mm 3 m/s 758 mmHg 79%
    09:00 -1°C° 0 mm 3 m/s 758 mmHg 76%
    10:00 0°C° 0 mm 3 m/s 758 mmHg 72%
    11:00 0°C° 0 mm 3 m/s 758 mmHg 70%
    12:00 0°C° 0 mm 4 m/s 758 mmHg 67%
    13:00 0°C° 0 mm 4 m/s 757 mmHg 64%
    14:00 +1°C° 0 mm 3 m/s 757 mmHg 68%
    15:00 0°C° 0 mm 3 m/s 757 mmHg 72%
    16:00 0°C° 0 mm 3 m/s 757 mmHg 76%
    17:00 -1°C° 0 mm 3 m/s 757 mmHg 78%
    18:00 -1°C° 0 mm 3 m/s 756 mmHg 80%
    19:00 -1°C° 0 mm 2 m/s 756 mmHg 82%
    20:00 -1°C° 0.1 mm 2 m/s 756 mmHg 82%
    21:00 -1°C° 0.1 mm 2 m/s 756 mmHg 82%
    22:00 -1°C° 0.1 mm 2 m/s 756 mmHg 82%
    23:00 -1°C° 0.4 mm 2 m/s 756 mmHg 84%

    Poimâine, 20 Ianuarie, Duminică

    Timp Temperatura Precipitaţii Vânt Presiune Umiditate
    00:00 -1°C° 0.4 mm 2 m/s 755 mmHg 85%
    01:00 -1°C° 0.4 mm 2 m/s 755 mmHg 87%
    02:00 -1°C° 0.2 mm 2 m/s 755 mmHg 88%
    03:00 -1°C° 0.2 mm 2 m/s 754 mmHg 89%
    04:00 -1°C° 0.2 mm 2 m/s 754 mmHg 90%
    05:00 +1°C° 0.4 mm 2 m/s 754 mmHg 91%
    06:00 +2°C° 0.4 mm 1 m/s 754 mmHg 92%
    07:00 +2°C° 0.4 mm 1 m/s 754 mmHg 92%
    08:00 +2°C° 0.8 mm 1 m/s 754 mmHg 94%
    09:00 +2°C° 0.8 mm 1 m/s 754 mmHg 95%
    10:00 +1°C° 0.8 mm 0 m/s 754 mmHg 97%
    11:00 +2°C° 0.4 mm 1 m/s 754 mmHg 98%
    12:00 +2°C° 0.4 mm 1 m/s 753 mmHg 99%
    13:00 +2°C° 0.4 mm 1 m/s 753 mmHg 99%
    14:00 +2°C° 0.1 mm 1 m/s 753 mmHg 99%
    15:00 +2°C° 0.1 mm 1 m/s 753 mmHg 99%
    16:00 +2°C° 0.1 mm 1 m/s 753 mmHg 99%
    17:00 +2°C° 0 mm 1 m/s 754 mmHg 99%
    18:00 +1°C° 0 mm 2 m/s 754 mmHg 99%
    19:00 +1°C° 0 mm 2 m/s 754 mmHg 98%
    20:00 -1°C° 0 mm 2 m/s 755 mmHg 97%
    21:00 -1°C° 0 mm 2 m/s 755 mmHg 96%
    22:00 -1°C° 0 mm 2 m/s 755 mmHg 95%
    23:00 -1°C° 0 mm 2 m/s 755 mmHg 95%

    21 Ianuarie, Luni

    Timp Temperatura Precipitaţii Vânt Presiune Umiditate
    00:00 -1°C° 0 mm 2 m/s 756 mmHg 94%
    01:00 -2°C° 0 mm 2 m/s 756 mmHg 94%
    02:00 -2°C° 0 mm 2 m/s 756 mmHg 94%
    03:00 -2°C° 0 mm 2 m/s 756 mmHg 93%
    04:00 0°C° 0 mm 1 m/s 756 mmHg 93%
    05:00 0°C° 0 mm 1 m/s 757 mmHg 93%
    06:00 0°C° 0 mm 1 m/s 757 mmHg 93%
    07:00 0°C° 0 mm 1 m/s 758 mmHg 93%
    08:00 -2°C° 0 mm 2 m/s 758 mmHg 88%
    09:00 -2°C° 0 mm 2 m/s 758 mmHg 84%
    10:00 -2°C° 0 mm 3 m/s 759 mmHg 80%
    11:00 -2°C° 0 mm 3 m/s 759 mmHg 79%
    12:00 -2°C° 0 mm 3 m/s 759 mmHg 79%
    13:00 -2°C° 0 mm 3 m/s 759 mmHg 79%
    14:00 -2°C° 0 mm 2 m/s 759 mmHg 81%
    15:00 -3°C° 0 mm 2 m/s 759 mmHg 83%
    16:00 -1°C° 0 mm 1 m/s 759 mmHg 85%
    17:00 -1°C° 0 mm 1 m/s 759 mmHg 87%
    18:00 -2°C° 0 mm 1 m/s 760 mmHg 88%
    19:00 -2°C° 0 mm 1 m/s 760 mmHg 89%
    20:00 -2°C° 0 mm 1 m/s 760 mmHg 90%
    21:00 -2°C° 0 mm 1 m/s 760 mmHg 90%
    22:00 -3°C° 0 mm 0 m/s 760 mmHg 91%
    23:00 -4°C° 0 mm 0 m/s 760 mmHg 91%

    22 Ianuarie, Marţi

    Timp Temperatura Precipitaţii Vânt Presiune Umiditate
    00:00 -4°C° 0 mm 0 m/s 760 mmHg 91%
    01:00 -4°C° 0 mm 0 m/s 760 mmHg 91%
    02:00 -4°C° 0 mm 0 m/s 759 mmHg 91%
    03:00 -4°C° 0 mm 0 m/s 759 mmHg 91%
    04:00 -4°C° 0 mm 0 m/s 759 mmHg 91%
    05:00 -3°C° 0 mm 1 m/s 759 mmHg 91%
    06:00 -3°C° 0 mm 1 m/s 759 mmHg 91%
    07:00 -3°C° 0 mm 1 m/s 758 mmHg 91%
    08:00 -2°C° 0 mm 1 m/s 758 mmHg 89%
    09:00 -2°C° 0 mm 1 m/s 758 mmHg 86%
    10:00 -1°C° 0 mm 1 m/s 757 mmHg 84%
    11:00 0°C° 0 mm 1 m/s 757 mmHg 83%
    12:00 0°C° 0 mm 1 m/s 756 mmHg 83%
    13:00 +1°C° 0 mm 1 m/s 755 mmHg 82%
    14:00 0°C° 0 mm 1 m/s 754 mmHg 85%
    15:00 -2°C° 0 mm 2 m/s 753 mmHg 88%
    16:00 -2°C° 0 mm 2 m/s 753 mmHg 91%
    17:00 -3°C° 0 mm 2 m/s 752 mmHg 90%
    18:00 -3°C° 0 mm 2 m/s 751 mmHg 89%
    19:00 -3°C° 0 mm 2 m/s 751 mmHg 89%
    20:00 -3°C° 0 mm 2 m/s 750 mmHg 87%
    21:00 -2°C° 0 mm 2 m/s 749 mmHg 86%
    22:00 -2°C° 0 mm 2 m/s 749 mmHg 84%
    23:00 -2°C° 0.1 mm 2 m/s 748 mmHg 85%

    23 Ianuarie, Miercuri

    Timp Temperatura Precipitaţii Vânt Presiune Umiditate
    00:00 -1°C° 0.1 mm 2 m/s 747 mmHg 85%
    01:00 +1°C° 0.1 mm 1 m/s 746 mmHg 86%
    02:00 -1°C° 0.1 mm 2 m/s 745 mmHg 87%
    03:00 -1°C° 0.1 mm 2 m/s 744 mmHg 88%
    04:00 -1°C° 0.1 mm 2 m/s 743 mmHg 89%
    05:00 -1°C° 0.1 mm 2 m/s 742 mmHg 89%
    06:00 -1°C° 0.1 mm 2 m/s 742 mmHg 89%
    07:00 -1°C° 0.1 mm 2 m/s 741 mmHg 90%
    08:00 -1°C° 0.1 mm 2 m/s 741 mmHg 91%
    09:00 +1°C° 0.1 mm 2 m/s 740 mmHg 91%
    10:00 +1°C° 0.1 mm 2 m/s 740 mmHg 92%
    11:00 +1°C° 0.1 mm 2 m/s 739 mmHg 94%
    12:00 +1°C° 0.1 mm 2 m/s 738 mmHg 95%
    13:00 +1°C° 0.1 mm 2 m/s 737 mmHg 96%
    14:00 +2°C° 0 mm 2 m/s 736 mmHg 96%
    15:00 +2°C° 0 mm 2 m/s 736 mmHg 95%
    16:00 +1°C° 0 mm 3 m/s 735 mmHg 94%
    17:00 +1°C° 0.1 mm 3 m/s 735 mmHg 93%
    18:00 +1°C° 0.1 mm 3 m/s 735 mmHg 92%
    19:00 +1°C° 0.1 mm 3 m/s 734 mmHg 92%
    20:00 +1°C° 0.1 mm 3 m/s 734 mmHg 91%
    21:00 0°C° 0.1 mm 4 m/s 734 mmHg 90%
    22:00 0°C° 0.1 mm 4 m/s 733 mmHg 89%
    23:00 0°C° 0.2 mm 4 m/s 733 mmHg 88%
    Arată mai mult